Temp
28 28 27 26 26 26 26 26 26 26 25 25 25 25 25 25 24 24 23 23 22 22 21 21 21 21 21 21 21 22 23 22 22 22 22 21 21 21 20 20 19 19 19
27 28 27 26 25 25 25 26 26 25 25 25 25 25 25 24 24 23 23 22 22 21 21 21 21 21 21 21 21 22 22 21 21 21 21 20 20 20 20 20 19 20 19
27 26 27 26 25 25 25 25 25 25 25 25 24 24 24 24 24 23 22 22 22 21 21 21 21 21 21 21 21 21 21 21 21 21 21 20 20 20 20 20 19 20 19
29 26 26 25 25 25 24 25 25 25 25 25 24 24 24 24 23 23 22 22 21 21 21 21 20 20 20 21 20 21 21 21 21 21 21 21 21 20 20 20 20 20 19
29 27 24 25 25 24 24 24 24 25 24 24 24 23 24 24 23 23 22 22 21 21 21 20 20 20 20 20 20 20 21 21 21 21 20 21 20 20 19 19 19 20 19
28 29 26 24 24 24 23 24 24 24 24 24 24 23 24 23 23 23 22 22 21 21 21 21 20 20 20 20 20 20 21 21 21 21 21 21 19 20 19 19 19 19 18
27 27 26 25 24 23 23 23 23 24 24 24 24 23 23 23 23 23 22 22 21 21 21 21 21 20 20 20 20 20 20 21 21 21 21 22 18 20 20 19 19 19 18
25 25 25 24 24 23 23 23 23 23 23 23 23 22 23 23 23 22 22 22 22 21 21 20 20 20 20 20 20 20 20 21 21 21 21 19 21 20 20 19 19 19 18
25 25 24 24 23 22 23 22 22 23 23 22 22 22 22 22 22 22 22 22 22 21 21 21 21 20 20 20 20 20 20 21 21 21 21 21 20 19 20 19 18 19 19
25 24 24 23 22 21 22 22 21 22 22 22 22 22 22 21 22 22 22 21 21 21 21 21 21 20 20 20 20 20 20 20 21 22 21 20 22 20 20 19 18 19 18
26 24 24 23 22 20 20 21 21 21 21 21 22 21 21 21 21 20 21 21 21 20 20 20 20 20 20 20 19 19 19 20 20 21 21 21 20 20 20 20 19 19 18
29 25 24 23 22 21 22 21 21 21 21 21 21 21 21 20 20 20 20 20 20 20 20 20 20 20 19 19 19 19 19 19 20 20 21 21 20 20 20 19 19 18 18
29 26 22 23 22 21 22 22 21 20 20 20 20 20 21 20 21 21 21 21 20 20 19 19 19 19 19 19 19 19 19 19 19 20 20 20 20 20 19 19 18 18 18
28 28 25 23 22 22 21 21 21 22 21 21 21 21 21 21 21 22 22 21 21 20 20 19 19 19 19 19 20 20 19 19 19 20 20 20 20 19 19 19 18 18 16
28 26 25 24 23 22 21 21 21 22 22 22 22 21 21 21 22 22 22 22 21 21 20 20 20 20 20 20 20 20 19 19 19 20 20 20 19 19 19 18 18 17 17
26 25 24 23 22 22 22 22 21 21 22 22 22 22 21 22 22 23 23 23 22 22 22 21 21 21 20 20 20 20 20 19 19 19 19 19 19 19 19 18 18 17 16
25 24 23 22 22 21 21 21 22 22 21 22 22 22 22 22 21 22 23 23 23 22 22 22 21 21 20 20 20 19 19 19 19 19 19 18 18 18 18 18 18 17 16
24 22 21 21 20 20 20 20 21 21 23 22 22 22 21 21 21 20 21 22 22 23 22 21 21 21 20 19 19 19 19 18 18 18 18 18 18 17 18 18 17 17 16
22 21 20 20 19 19 19 19 19 20 21 22 22 22 22 20 20 19 20 21 22 22 21 20 20 20 19 19 19 19 19 18 18 18 18 17 17 17 17 17 17 17 16
20 19 19 18 17 17 18 18 19 19 20 21 22 22 22 21 20 19 19 20 20 20 20 20 19 19 19 19 19 19 18 18 18 17 17 17 16 16 16 16 16 17 17
19 18 16 16 16 15 16 17 17 18 20 21 21 22 23 22 20 19 19 19 19 19 19 18 18 19 18 18 19 18 17 17 17 17 17 16 16 15 15 15 15 16 16
18 16 15 15 14 13 14 14 14 14 15 16 18 20 21 22 22 20 19 19 19 18 18 18 17 17 17 18 17 15 15 15 16 16 16 16 15 14 14 15 15 14 15
17 15 14 13 12 12 12 12 13 13 14 16 17 19 20 22 22 21 19 19 19 18 16 17 17 16 17 16 17 16 14 15 14 16 16 15 15 14 13 14 15 14 14
16 14 13 12 12 11 11 10 10 10 11 12 13 16 20 21 21 21 20 18 18 19 18 17 17 16 17 16 16 16 18 17 15 14 15 15 15 14 14 14 14 15 15
14 13 12 10 10 9 9 8 7 7 8 10 11 13 16 18 21 21 19 18 18 17 17 17 17 16 16 16 16 16 16 17 18 16 14 14 15 14 14 14 15 14 14
13 12 10 8 8 8 7 6 5 5 6 7 8 10 12 16 19 20 20 18 17 17 17 17 18 16 16 17 16 16 16 17 17 16 15 14 14 14 14 14 14 15 14
Height
730 729 733 736 739 742 745 748 752 755 758 762 765 769 772 775 777 780 782 784 786 788 791 793 795 798 801 802 804 804 805 806 806 806 805 806 808 810 813 815 817 818 821
731 731 733 737 740 743 745 749 753 756 759 762 765 769 772 775 779 782 785 787 789 790 792 794 797 799 802 802 804 805 806 806 805 805 806 808 810 812 814 816 818 819 822
732 733 735 737 740 743 747 750 753 756 759 762 765 769 772 775 778 781 785 789 791 793 795 796 798 800 802 803 804 805 806 806 805 806 807 809 812 814 815 816 817 820 824
732 732 734 738 741 744 747 750 753 756 759 762 765 768 772 776 779 782 785 788 792 794 796 798 799 800 802 803 805 805 805 805 805 806 809 810 810 810 813 815 817 820 825
733 731 733 736 740 744 747 750 752 755 758 761 764 768 771 774 778 781 784 787 790 793 797 799 800 801 803 803 804 805 805 804 804 807 809 810 813 815 815 815 817 818 825
732 733 731 736 739 743 747 750 752 754 757 760 763 767 770 774 777 780 784 786 789 792 795 798 800 802 803 803 805 805 804 804 804 806 810 808 807 816 814 819 818 821 825
732 731 733 736 740 743 746 750 752 755 757 760 762 766 770 773 777 780 783 785 788 791 794 795 797 800 802 803 805 805 805 804 803 804 808 809 811 817 816 818 818 820 825
733 733 734 736 739 742 745 749 752 754 757 760 762 765 768 772 775 778 782 784 787 790 793 795 797 798 800 802 803 804 804 804 802 802 811 815 807 817 819 819 818 819 824
732 735 734 736 739 741 744 748 751 753 756 759 762 765 767 770 773 777 780 783 785 788 791 793 794 796 800 802 802 804 804 804 802 802 808 806 809 818 816 819 819 819 824
729 733 736 735 737 739 742 746 749 752 755 758 761 763 766 770 772 776 778 782 784 787 790 791 793 794 795 800 802 803 803 803 802 801 805 809 807 810 812 819 821 819 824
726 729 734 736 737 740 742 744 748 751 754 757 760 762 764 766 769 773 775 779 782 786 789 790 792 794 795 796 800 802 802 802 802 802 804 804 809 810 815 816 820 822 824
724 725 729 733 736 739 742 743 746 749 752 754 757 759 762 765 768 770 772 776 779 783 786 788 789 791 794 796 795 799 800 801 802 803 804 806 806 808 812 816 820 822 824
722 724 726 728 733 737 740 741 744 746 750 752 755 757 760 763 766 767 770 772 775 779 783 786 787 788 790 794 795 795 797 799 800 801 801 803 806 807 809 814 818 819 824
723 724 724 725 730 733 738 740 742 744 746 749 751 754 757 760 763 765 767 768 771 774 778 782 784 786 787 789 793 794 793 796 799 800 800 800 804 806 808 811 816 818 819
722 725 726 730 732 732 736 740 741 741 743 745 748 749 752 754 758 761 762 764 766 769 771 776 779 781 784 785 787 790 792 792 796 799 798 799 802 803 806 808 812 816 816
724 727 728 730 731 732 734 735 738 739 740 741 744 746 749 751 753 755 758 760 761 763 767 770 774 778 779 781 784 785 787 791 791 794 797 797 798 801 803 805 808 812 816
725 728 731 734 733 732 731 732 735 736 738 739 739 742 743 746 747 750 752 754 757 758 761 765 768 772 775 777 780 782 785 787 789 790 794 797 797 798 800 802 805 808 811
728 731 734 735 735 734 732 730 730 731 734 734 736 736 735 738 742 745 747 747 750 754 755 758 762 765 769 772 776 779 782 784 786 787 790 793 795 796 797 799 801 804 807
729 733 736 736 736 734 733 732 730 729 728 730 731 731 730 731 735 741 742 743 745 747 750 753 755 758 763 768 772 776 779 781 783 785 786 789 792 793 795 795 797 799 802
731 735 736 735 736 735 733 731 730 728 726 726 726 725 726 727 728 731 736 737 738 740 744 747 749 753 756 762 768 771 774 778 780 782 783 785 787 792 792 792 793 795 797
733 735 736 735 735 734 732 731 729 727 725 723 721 721 720 720 721 724 727 731 733 735 738 739 744 747 751 757 765 768 771 772 776 777 780 781 783 788 788 789 789 790 792
734 735 736 736 735 734 733 730 728 726 723 720 716 713 713 713 713 717 719 721 726 729 731 730 733 741 745 748 759 765 769 772 770 773 776 777 779 784 784 784 783 786 786
734 735 736 736 736 735 733 730 727 724 720 716 713 708 704 704 705 706 712 713 716 719 705 732 733 733 738 740 750 758 766 767 766 767 769 772 774 778 780 780 780 782 785
735 737 738 737 735 733 732 730 729 725 721 717 711 705 700 697 694 696 698 703 707 712 721 724 728 732 733 735 747 753 749 757 761 766 766 767 769 771 773 775 776 776 782
736 738 739 738 736 733 731 731 729 725 721 715 709 701 695 690 684 684 683 689 694 700 711 711 717 725 729 730 739 750 749 752 754 754 762 763 766 766 767 770 771 773 777
739 740 740 738 736 735 733 730 728 723 716 711 706 699 691 682 678 676 678 682 685 690 697 699 700 718 721 721 723 736 740 748 748 749 751 756 759 761 763 765 768 771 773
Wind_Speed
8 16 24 25 23 20 19 18 16 15 13 12 12 13 12 12 12 12 13 15 17 18 17 16 18 17 16 12 10 7 4 1 2 4 5 7 11 14 17 19 20 18 19
3 15 23 25 22 20 19 18 16 14 13 13 13 14 14 14 13 12 12 14 16 17 15 14 14 14 14 12 10 7 5 4 5 5 7 9 13 16 18 18 14 19 19
7 12 21 25 22 21 20 18 16 15 14 14 14 14 15 15 14 14 14 14 14 14 12 12 13 12 11 10 9 7 6 6 6 7 8 9 13 16 18 17 14 18 19
3 12 18 25 22 22 20 19 17 15 14 14 15 16 17 17 15 14 16 16 15 12 10 10 10 9 10 10 9 9 9 9 8 8 11 13 14 19 17 14 19 19 19
1 9 14 23 24 22 20 18 17 16 16 16 16 17 19 19 17 16 17 17 17 13 11 10 11 11 10 10 9 9 10 11 9 10 9 10 6 16 17 18 17 20 19
5 4 13 16 24 23 20 19 17 17 17 17 18 19 20 20 18 17 18 18 18 15 13 12 11 10 11 10 10 10 11 12 11 13 11 11 22 22 18 15 16 17 18
6 3 12 12 20 22 21 19 18 17 17 17 18 19 20 20 19 18 18 19 19 17 15 13 12 12 11 12 11 12 12 12 13 14 12 7 8 10 17 17 16 18 18
4 2 9 14 13 22 22 21 19 17 16 16 18 18 19 19 20 19 19 20 20 19 16 14 12 13 12 12 12 13 13 13 14 17 8 9 8 15 14 17 18 18 17
2 3 7 9 14 20 23 22 21 18 16 17 18 18 19 19 19 19 20 20 21 20 18 16 14 13 13 13 13 13 14 13 14 16 12 5 11 7 14 17 18 19 18
4 6 8 8 7 19 24 23 22 20 18 17 17 18 18 18 18 19 20 21 21 21 20 17 15 14 13 14 14 14 14 13 15 18 14 5 11 13 12 17 18 20 20
7 8 11 7 11 14 16 21 22 20 19 18 17 18 18 19 19 20 21 22 22 22 20 18 16 15 14 14 16 16 15 16 16 17 12 5 10 10 12 14 18 16 22
9 14 12 13 11 16 15 17 21 22 21 21 20 18 18 17 16 18 19 22 21 23 21 19 18 16 16 15 17 18 18 19 16 14 13 11 4 7 11 14 16 18 24
1 6 14 14 15 17 19 14 19 20 20 20 19 19 19 18 19 18 21 21 23 22 22 21 20 19 19 18 17 16 20 20 19 19 15 12 13 14 15 16 19 20 28
3 4 13 15 14 15 19 19 14 19 23 22 23 22 20 21 21 21 24 24 26 25 25 20 22 21 20 18 19 18 16 18 20 20 16 14 13 16 17 18 22 23 27
2 10 9 6 6 12 16 17 19 21 21 24 21 27 27 24 24 24 23 23 27 22 23 24 23 22 23 23 22 21 19 19 21 17 16 13 14 15 18 18 22 23 23
7 6 5 11 13 8 11 15 20 18 20 21 24 22 27 25 27 26 26 26 23 24 23 24 23 24 24 23 23 22 22 19 19 19 13 14 13 11 17 19 21 23 24
3 5 8 6 8 12 11 6 14 17 19 21 25 27 33 33 24 24 25 25 26 23 25 27 24 22 22 20 19 18 20 21 20 18 18 13 9 10 14 20 23 24 29
5 8 6 8 9 11 13 14 15 10 19 21 23 26 31 32 37 26 27 27 23 24 28 29 30 23 22 19 19 18 19 19 20 19 15 18 14 10 13 17 25 24 25
6 8 7 7 9 11 12 14 17 20 20 19 25 26 27 32 31 36 33 30 37 31 20 26 28 25 20 19 19 19 19 19 18 18 15 14 16 19 17 17 23 28 31
8 8 10 12 13 13 14 15 17 20 22 23 25 26 29 32 33 33 33 31 35 33 29 28 25 24 21 22 18 16 18 17 16 16 15 13 16 18 18 17 17 26 23
9 11 14 15 16 18 16 16 17 18 19 22 26 30 27 31 33 34 34 34 31 30 31 29 28 27 22 19 14 9 11 13 11 15 17 17 19 17 21 17 19 23 26
8 13 14 15 17 18 18 21 21 23 26 29 29 26 29 38 34 34 35 34 33 32 33 31 32 24 20 27 13 7 2 5 17 15 16 18 17 17 20 16 15 22 25
11 12 14 17 18 19 19 20 20 22 24 25 30 36 37 37 39 34 36 36 36 30 17 30 29 29 22 24 25 8 3 4 3 14 20 18 18 20 19 19 14 19 24
15 15 15 18 20 19 22 21 22 22 22 27 33 31 31 33 39 39 42 39 36 36 36 29 28 26 24 21 21 26 11 7 4 2 9 21 21 22 20 22 18 14 28
16 16 18 19 21 23 23 22 22 23 24 27 30 35 35 37 41 40 41 39 40 36 35 34 28 27 27 23 21 15 20 18 16 3 3 5 18 22 24 24 19 25 14
17 17 19 20 22 23 22 23 24 27 28 28 28 32 35 36 33 40 41 37 37 35 34 38 39 34 38 31 30 25 19 17 12 6 2 4 9 14 22 21 21 21 23
Wind_Direction
75 149 173 171 166 165 166 171 174 176 180 182 185 184 182 174 163 159 158 157 158 158 161 169 173 178 184 196 204 212 211 194 156 156 136 131 129 127 124 122 115 129 127
122 162 179 179 173 172 173 177 182 186 189 189 189 189 184 178 170 162 158 159 162 166 170 173 175 183 193 199 208 202 208 195 185 178 156 142 138 135 132 129 131 137 133
135 169 182 185 180 182 183 185 189 194 196 195 194 193 189 183 176 169 167 169 167 169 177 180 182 187 194 202 206 212 213 203 203 188 161 143 148 144 149 144 146 145 141
110 164 190 188 189 191 191 192 194 198 201 204 200 196 194 188 183 179 178 178 174 171 186 193 188 193 199 202 210 209 207 213 212 189 179 168 162 160 158 153 153 151 148
314 186 180 201 200 198 201 200 197 197 202 206 204 200 197 193 189 189 187 185 182 180 185 195 205 201 204 204 209 212 215 218 219 205 190 189 139 174 159 150 156 152 153
335 229 199 202 200 200 205 205 202 200 202 205 204 201 199 197 196 194 194 190 187 186 191 209 209 214 210 212 215 216 216 219 232 229 212 243 189 184 159 155 157 152 153
349 234 175 204 211 208 205 207 204 204 203 204 201 199 200 200 202 202 200 199 194 194 201 211 208 215 219 221 222 221 223 229 240 235 233 229 193 182 170 162 159 159 162
341 218 180 192 210 212 207 206 210 206 204 202 200 201 203 205 207 208 206 204 204 203 205 210 218 221 221 221 218 220 226 231 243 242 266 173 198 189 180 174 168 169 169
111 205 185 201 215 212 209 207 210 207 203 203 205 207 208 210 211 214 211 210 207 206 210 215 215 223 231 226 222 222 227 232 244 257 283 183 166 222 187 183 179 175 177
144 183 213 219 233 204 204 206 209 208 205 204 206 207 209 213 215 218 214 214 213 210 214 218 222 221 226 232 231 228 228 232 243 256 292 211 166 199 200 194 193 184 186
171 188 201 228 218 203 201 209 206 207 207 206 206 207 207 208 212 214 215 215 216 217 219 223 224 229 229 223 234 234 231 235 242 254 287 261 192 179 207 201 200 202 196
270 167 190 210 200 193 198 209 211 208 207 208 209 209 207 202 209 210 219 213 218 220 222 227 228 228 230 230 227 231 234 236 241 244 258 249 247 225 221 211 209 217 208
20 180 187 192 211 219 207 206 201 202 209 213 208 207 214 205 205 210 214 215 217 220 226 229 229 224 225 224 230 232 236 237 234 244 246 253 256 240 226 224 225 225 217
256 313 187 194 190 198 209 214 199 201 203 206 212 205 208 207 211 212 209 217 214 219 223 221 230 229 222 222 229 233 228 238 234 231 237 242 224 227 236 231 226 217 214
49 27 27 47 230 213 212 217 217 218 212 211 212 209 206 210 208 215 211 207 211 207 215 216 220 220 221 223 225 233 233 229 236 234 236 232 235 232 231 227 220 216 215
57 356 14 348 340 337 233 227 233 235 229 221 217 217 208 213 213 213 216 214 209 213 213 219 220 221 221 224 230 229 232 236 237 227 243 233 229 241 233 224 219 212 206
41 32 38 326 330 332 315 327 238 239 241 234 224 225 225 219 213 214 211 213 217 205 209 217 220 223 227 217 222 226 230 231 234 229 228 237 229 237 237 219 220 219 219
17 41 1 342 331 325 322 311 288 280 243 239 237 225 226 219 222 223 224 225 213 202 206 208 212 212 211 214 219 228 230 231 232 228 228 230 228 233 237 224 217 223 209
24 29 356 340 334 335 318 308 297 284 271 257 238 239 229 222 225 220 222 224 223 211 209 203 205 202 202 207 217 227 233 231 234 234 222 233 239 235 241 241 217 220 224
38 13 8 1 348 334 317 303 293 283 279 262 254 239 234 227 220 217 223 227 215 210 213 202 197 199 200 207 204 215 223 231 234 236 230 221 230 234 232 227 223 221 221
31 20 8 359 352 346 334 324 310 300 293 272 261 246 247 233 221 213 217 222 214 206 201 197 198 195 194 198 205 193 210 212 231 237 236 220 224 233 224 225 228 227 218
29 22 4 357 351 343 335 327 314 303 296 290 285 274 253 237 231 222 218 216 217 210 205 198 192 195 192 197 191 141 184 254 232 232 226 220 218 226 222 225 229 224 222
47 22 3 355 347 340 335 327 319 309 301 282 274 275 265 240 232 222 223 219 214 223 223 215 199 188 183 179 198 159 150 217 140 216 213 209 217 225 225 216 220 213 200
38 21 3 353 346 343 340 332 323 310 294 288 291 286 275 254 224 225 220 220 214 220 210 210 223 198 188 176 187 213 200 155 187 169 218 216 216 223 224 213 205 191 210
28 15 8 356 348 342 337 330 319 305 293 288 286 286 282 274 231 226 214 214 215 211 213 200 200 198 201 178 188 205 225 245 234 158 170 195 216 224 228 213 205 208 205
21 13 7 356 346 339 332 323 311 301 295 290 285 283 282 282 263 226 219 208 210 208 205 207 205 216 194 188 182 200 207 214 221 199 162 171 208 208 219 218 213 211 215